Flag for Bermuda Weather past 2 weeks in Hamilton, Bermuda

Now
79 °F

Scattered showers. Passing clouds.


Feels Like: 82 °F
Forecast: 80 / 84 °F
Wind: 8 mph from East

Location: Bermuda

Current Time: Aug 2, 2014 at 6:57:35 AM

Latest Report: Aug 2, 2014 at 5:55 AM


Visibility: N/A

Pressure: 30.15 "Hg

Humidity: 79%

Dew point: 72 °F

Location of HamiltonLocation

Historic Weather in Hamilton — Graph

°F

Hamilton temperature yesterday

Maximum temperature yesterday: 82 °F (at 9:55 AM)
Minimum temperature yesterday: 77 °F (at 1:55 AM)
Average temperature yesterday: 80 °F

Past Weeks' High & Low Weather Summary

 TemperatureHumidityPressure
High84 °F (Jul 18, 12:55 PM)89% (Jul 22, 8:57 AM)30.30 "Hg (Jul 22, 8:57 AM)
Low75 °F (Jul 22, 8:57 AM)55% (Jul 20, 2:55 PM)30.09 "Hg (Jul 26, 4:55 AM)
Average81 °F77%30.19 "Hg
* Reported Jul 18 5:55 AM — Aug 2 5:55 AM, Hamilton, Weather by CustomWeather, © 2014

Note: Actual official high and low records may vary slightly from our data, if they occured in-between our weather recording intervals... More about our weather records

Advertising

Hamilton weather history for previous 24 hours

 ConditionsComfort  
Time TempWeatherWind HumidityBarometerVisibility
5:55 AM
Aug 2
79 °FScattered showers. Passing clouds.8 mph79%30.15 "HgN/A
4:55 AM79 °FScattered showers. Passing clouds.9 mph79%30.15 "HgN/A
3:55 AM79 °FScattered showers. Partly cloudy.9 mph79%30.15 "HgN/A
2:55 AM79 °FScattered showers. Passing clouds.9 mph79%30.18 "HgN/A
1:55 AM79 °FScattered showers. Passing clouds.8 mph79%30.18 "HgN/A
12:55 AM79 °FScattered showers. Passing clouds.8 mph79%30.18 "HgN/A
11:55 PM
Aug 1
79 °FPassing clouds.9 mph74%30.21 "HgN/A
10:55 PM79 °FPassing clouds.10 mph79%30.21 "HgN/A
9:55 PM79 °FPassing clouds.9 mph74%30.21 "HgN/A
8:55 PM79 °FScattered clouds.10 mph74%30.21 "HgN/A
7:55 PM81 °FScattered clouds.10 mph70%30.21 "HgN/A
6:55 PM81 °FScattered clouds.13 mph70%30.18 "HgN/A
5:55 PM82 °FScattered showers. Scattered clouds.14 mph66%30.18 "HgN/A
4:55 PM82 °FScattered clouds.13 mph70%30.18 "HgN/A
3:55 PM82 °FBroken clouds.13 mph70%30.18 "HgN/A
2:55 PM82 °FScattered clouds.14 mph66%30.21 "HgN/A
1:55 PM82 °FScattered clouds.14 mph66%30.21 "HgN/A
12:55 PM82 °FScattered clouds.12 mph66%30.21 "HgN/A
11:55 AM82 °FScattered clouds.12 mph70%30.21 "HgN/A
10:55 AM82 °FScattered clouds.12 mph70%30.21 "HgN/A
9:55 AM82 °FScattered clouds.10 mph70%30.21 "HgN/A
8:55 AM81 °FScattered clouds.9 mph70%30.21 "HgN/A
7:55 AM81 °FPassing clouds.8 mph74%30.21 "HgN/A
6:55 AM77 °FPassing clouds.6 mph79%30.21 "HgN/A
Weather by CustomWeather, © 2014

See weather overviewHow to use our weather pages